| time (UTC) | temp F | wind direction | speed MPH | gust MPH | rain 1hr in | rain 24hr in | rain mn in | humidity % | barometer mb |
| 20260508120800 | 68 | 269 | 2.0 | 6.0 | 0.00 | 0.03 | 0.00 | 57 | 1016.4 |
| 20260508120256 | 68 | 250 | 2.0 | 5.0 | 0.00 | 0.03 | 0.00 | 56 | 1016.4 |
| 20260508115758 | 68 | 218 | 2.0 | 5.0 | 0.00 | 0.03 | 0.00 | 57 | 1016.4 |
| 20260508115256 | 68 | 142 | 3.0 | 6.0 | 0.00 | 0.03 | 0.00 | 58 | 1016.4 |
| 20260508114758 | 68 | 107 | 3.0 | 6.0 | 0.00 | 0.03 | 0.00 | 59 | 1016.4 |
| 20260508114256 | 68 | 217 | 3.0 | 7.0 | 0.00 | 0.03 | 0.00 | 58 | 1016.4 |
| 20260508113800 | 67 | 228 | 3.0 | 7.0 | 0.00 | 0.03 | 0.00 | 59 | 1016.4 |
| 20260508112256 | 67 | 265 | 2.0 | 7.0 | 0.00 | 0.03 | 0.00 | 57 | 1016.4 |
| 20260508111800 | 67 | 201 | 2.0 | 7.0 | 0.00 | 0.03 | 0.00 | 58 | 1016.4 |
| 20260508111256 | 67 | 184 | 2.0 | 8.0 | 0.00 | 0.03 | 0.00 | 59 | 1016.4 |
| 20260508110758 | 67 | 296 | 2.0 | 8.0 | 0.00 | 0.03 | 0.00 | 58 | 1016.4 |
| 20260508110255 | 67 | 152 | 2.0 | 6.0 | 0.00 | 0.03 | 0.00 | 61 | 1016.4 |
| 20260508105756 | 67 | 39 | 2.0 | 7.0 | 0.00 | 0.03 | 0.00 | 59 | 1016.5 |
| 20260508105256 | 67 | 90 | 2.0 | 7.0 | 0.00 | 0.03 | 0.00 | 59 | 1016.5 |
| 20260508104756 | 66 | 49 | 2.0 | 8.0 | 0.00 | 0.03 | 0.00 | 61 | 1016.5 |
| 20260508104256 | 66 | 202 | 2.0 | 8.0 | 0.00 | 0.03 | 0.00 | 65 | 1016.5 |
| 20260508103756 | 65 | 72 | 2.0 | 5.0 | 0.00 | 0.03 | 0.00 | 65 | 1016.5 |
| 20260508103256 | 65 | 236 | 2.0 | 5.0 | 0.00 | 0.03 | 0.00 | 64 | 1016.5 |
| 20260508102756 | 65 | 216 | 2.0 | 5.0 | 0.00 | 0.03 | 0.00 | 68 | 1016.7 |
| 20260508102257 | 64 | 256 | 2.0 | 6.0 | 0.00 | 0.03 | 0.00 | 68 | 1016.7 |
| 20260508101756 | 64 | 240 | 2.0 | 6.0 | 0.00 | 0.03 | 0.00 | 68 | 1016.7 |
| 20260508101257 | 64 | 255 | 3.0 | 6.0 | 0.00 | 0.03 | 0.00 | 69 | 1016.8 |
| 20260508100756 | 64 | 227 | 3.0 | 6.0 | 0.00 | 0.03 | 0.00 | 66 | 1016.8 |
| 20260508100258 | 64 | 262 | 2.0 | 6.0 | 0.00 | 0.03 | 0.00 | 67 | 1016.8 |
| 20260508095256 | 63 | 278 | 2.0 | 5.0 | 0.00 | 0.03 | 0.00 | 69 | 1016.9 |
| 20260508094757 | 63 | 228 | 2.0 | 6.0 | 0.00 | 0.03 | 0.00 | 70 | 1016.9 |
| 20260508094257 | 62 | 241 | 2.0 | 6.0 | 0.00 | 0.03 | 0.00 | 69 | 1017.0 |
| 20260508093756 | 62 | 236 | 2.0 | 6.0 | 0.00 | 0.03 | 0.00 | 71 | 1017.0 |
| 20260508092756 | 61 | 294 | 2.0 | 6.0 | 0.00 | 0.03 | 0.00 | 71 | 1017.0 |
| 20260508092256 | 61 | 316 | 2.0 | 6.0 | 0.00 | 0.03 | 0.00 | 72 | 1017.0 |
| 20260508091256 | 61 | 272 | 2.0 | 6.0 | 0.00 | 0.03 | 0.00 | 75 | 1017.1 |
| 20260508090257 | 60 | 255 | 2.0 | 6.0 | 0.00 | 0.03 | 0.00 | 76 | 1017.1 |
| 20260508085756 | 60 | 303 | 2.0 | 6.0 | 0.00 | 0.03 | 0.00 | 79 | 1017.1 |
| 20260508085257 | 60 | 282 | 2.0 | 6.0 | 0.00 | 0.03 | 0.00 | 78 | 1017.1 |
| 20260508084758 | 59 | 240 | 2.0 | 5.0 | 0.00 | 0.03 | 0.00 | 79 | 1017.1 |
| 20260508084257 | 59 | 308 | 2.0 | 5.0 | 0.00 | 0.03 | 0.00 | 81 | 1017.2 |
| 20260508083756 | 58 | 220 | 2.0 | 5.0 | 0.00 | 0.03 | 0.00 | 82 | 1017.2 |
| 20260508083256 | 58 | 275 | 2.0 | 5.0 | 0.00 | 0.03 | 0.00 | 84 | 1017.2 |
| 20260508082256 | 57 | 271 | 0.0 | 5.0 | 0.00 | 0.03 | 0.00 | 86 | 1017.4 |
| 20260508081257 | 56 | 76 | 0.0 | 2.0 | 0.00 | 0.03 | 0.00 | 87 | 1017.3 |
| 20260508080756 | 56 | 76 | 0.0 | 2.0 | 0.00 | 0.03 | 0.00 | 89 | 1017.3 |
| 20260508080256 | 56 | 76 | 0.0 | 2.0 | 0.00 | 0.03 | 0.00 | 90 | 1017.3 |
| 20260508075257 | 55 | 76 | 0.0 | 1.0 | 0.00 | 0.03 | 0.00 | 91 | 1017.4 |
| 20260508074757 | 55 | 76 | 0.0 | 2.0 | 0.00 | 0.03 | 0.00 | 92 | 1017.4 |
| 20260508074256 | 54 | 76 | 1.0 | 2.0 | 0.00 | 0.03 | 0.00 | 92 | 1017.4 |
| 20260508073757 | 54 | 76 | 1.0 | 3.0 | 0.00 | 0.03 | 0.00 | 93 | 1017.4 |
| 20260508073256 | 54 | 76 | 1.0 | 3.0 | 0.00 | 0.03 | 0.00 | 94 | 1017.4 |
| 20260508072256 | 53 | 85 | 2.0 | 5.0 | 0.00 | 0.03 | 0.00 | 94 | 1017.4 |
| 20260508071757 | 52 | 277 | 2.0 | 5.0 | 0.00 | 0.03 | 0.00 | 95 | 1017.4 |
| 20260508070256 | 52 | 163 | 0.0 | 0.0 | 0.00 | 0.03 | 0.00 | 97 | 1017.4 |
| 20260508065756 | 52 | 2 | 0.0 | 0.0 | 0.00 | 0.03 | 0.00 | 97 | 1017.4 |
| 20260508065256 | 51 | 2 | 0.0 | 2.0 | 0.00 | 0.03 | 0.00 | 97 | 1017.4 |
| 20260508064756 | 51 | 12 | 0.0 | 2.0 | 0.00 | 0.03 | 0.00 | 97 | 1017.4 |
| 20260508064257 | 51 | 12 | 0.0 | 2.0 | 0.00 | 0.03 | 0.00 | 97 | 1017.3 |
| 20260508063756 | 51 | 12 | 0.0 | 2.0 | 0.00 | 0.03 | 0.00 | 97 | 1017.3 |
| 20260508063257 | 51 | 12 | 0.0 | 2.0 | 0.00 | 0.03 | 0.00 | 97 | 1017.3 |
| 20260508062756 | 51 | 12 | 0.0 | 2.0 | 0.00 | 0.03 | 0.00 | 97 | 1017.2 |
| 20260508062256 | 51 | 12 | 2.0 | 2.0 | 0.00 | 0.03 | 0.00 | 97 | 1017.2 |
| 20260508061257 | 50 | 357 | 2.0 | 5.0 | 0.00 | 0.03 | 0.00 | 96 | 1017.0 |
| 20260508060756 | 50 | 247 | 2.0 | 5.0 | 0.00 | 0.03 | 0.00 | 96 | 1017.0 |
| 20260508055757 | 50 | 280 | 0.0 | 5.0 | 0.00 | 0.03 | 0.00 | 96 | 1017.0 |
| 20260508055257 | 50 | 276 | 2.0 | 2.0 | 0.00 | 0.03 | 0.00 | 96 | 1017.0 |
| 20260508054256 | 50 | 276 | 2.0 | 5.0 | 0.00 | 0.03 | 0.00 | 96 | 1017.1 |
| 20260508053757 | 50 | 252 | 2.0 | 3.0 | 0.00 | 0.03 | 0.00 | 96 | 1017.1 |
| 20260508053257 | 50 | 278 | 0.0 | 3.0 | 0.00 | 0.03 | 0.00 | 96 | 1017.1 |
| 20260508052757 | 50 | 287 | 0.0 | 2.0 | 0.00 | 0.03 | 0.00 | 96 | 1017.1 |
| 20260508052257 | 50 | 287 | 2.0 | 3.0 | 0.00 | 0.03 | 0.00 | 96 | 1017.1 |
| 20260508051756 | 50 | 287 | 2.0 | 5.0 | 0.00 | 0.03 | 0.00 | 96 | 1017.1 |
| 20260508051256 | 50 | 267 | 2.0 | 5.0 | 0.00 | 0.03 | 0.00 | 96 | 1017.1 |
| 20260508050757 | 50 | 274 | 2.0 | 5.0 | 0.00 | 0.03 | 0.00 | 96 | 1017.1 |
| 20260508050256 | 50 | 245 | 2.0 | 5.0 | 0.00 | 0.03 | 0.00 | 96 | 1017.1 |
| 20260508045756 | 50 | 294 | 2.0 | 5.0 | 0.00 | 0.03 | 0.00 | 96 | 1017.1 |
| 20260508045257 | 50 | 285 | 2.0 | 3.0 | 0.00 | 0.03 | 0.00 | 96 | 1017.1 |
| 20260508044756 | 50 | 285 | 2.0 | 5.0 | 0.00 | 0.03 | 0.00 | 96 | 1017.1 |
| 20260508043757 | 50 | 268 | 1.0 | 3.0 | 0.00 | 0.03 | 0.00 | 96 | 1017.0 |
| 20260508043257 | 50 | 271 | 2.0 | 3.0 | 0.00 | 0.03 | 0.00 | 96 | 1017.0 |
| 20260508042757 | 50 | 272 | 2.0 | 3.0 | 0.00 | 0.03 | 0.00 | 96 | 1016.9 |
| 20260508042256 | 50 | 272 | 0.0 | 3.0 | 0.00 | 0.03 | 0.00 | 96 | 1016.9 |
| 20260508041757 | 50 | 275 | 0.0 | 3.0 | 0.00 | 0.03 | 0.00 | 96 | 1016.9 |
| 20260508041257 | 50 | 275 | 2.0 | 5.0 | 0.00 | 0.03 | 0.00 | 96 | 1016.8 |
| 20260508040256 | 50 | 263 | 0.0 | 5.0 | 0.00 | 0.03 | 0.00 | 96 | 1016.8 |
| 20260508035757 | 50 | 337 | 0.0 | 2.0 | 0.00 | 0.03 | 0.00 | 96 | 1016.8 |
| 20260508035258 | 51 | 339 | 0.0 | 2.0 | 0.00 | 0.03 | 0.00 | 96 | 1016.8 |
| 20260508034757 | 51 | 339 | 0.0 | 2.0 | 0.00 | 0.03 | 0.00 | 96 | 1016.8 |
| 20260508034256 | 51 | 339 | 2.0 | 2.0 | 0.00 | 0.03 | 0.00 | 96 | 1016.9 |
| 20260508033757 | 51 | 339 | 2.0 | 3.0 | 0.00 | 0.03 | 0.00 | 96 | 1016.9 |
| 20260508033256 | 51 | 340 | 0.0 | 3.0 | 0.00 | 0.03 | 0.00 | 96 | 1016.9 |
| 20260508032757 | 51 | 252 | 0.0 | 3.0 | 0.00 | 0.03 | 0.00 | 95 | 1017.0 |
| 20260508032257 | 51 | 252 | 1.0 | 2.0 | 0.00 | 0.03 | 0.00 | 96 | 1017.0 |
| 20260508031757 | 51 | 252 | 1.0 | 2.0 | 0.00 | 0.03 | 0.00 | 96 | 1017.0 |
| 20260508030757 | 51 | 292 | 2.0 | 3.0 | 0.00 | 0.03 | 0.00 | 96 | 1017.0 |
| 20260508030257 | 51 | 290 | 0.0 | 3.0 | 0.00 | 0.03 | 0.00 | 96 | 1017.0 |
| 20260508025756 | 51 | 267 | 0.0 | 2.0 | 0.00 | 0.03 | 0.00 | 96 | 1017.0 |
| 20260508024757 | 51 | 236 | 0.0 | 0.0 | 0.00 | 0.03 | 0.00 | 96 | 1017.0 |
| 20260508024257 | 51 | 236 | 0.0 | 2.0 | 0.00 | 0.03 | 0.00 | 96 | 1017.0 |
| 20260508023257 | 51 | 236 | 2.0 | 2.0 | 0.00 | 0.03 | 0.00 | 96 | 1017.0 |
| 20260508022758 | 51 | 236 | 2.0 | 3.0 | 0.00 | 0.03 | 0.00 | 95 | 1017.0 |
| 20260508022257 | 51 | 230 | 0.0 | 3.0 | 0.00 | 0.03 | 0.00 | 95 | 1017.0 |
| 20260508021257 | 51 | 285 | 0.0 | 1.0 | 0.00 | 0.03 | 0.00 | 95 | 1017.0 |
| 20260508020756 | 51 | 285 | 0.0 | 3.0 | 0.00 | 0.03 | 0.00 | 95 | 1017.0 |
| 20260508015758 | 51 | 285 | 1.0 | 3.0 | 0.00 | 0.03 | 0.00 | 95 | 1017.1 |
| 20260508015257 | 51 | 285 | 2.0 | 3.0 | 0.00 | 0.03 | 0.00 | 95 | 1017.1 |
| 20260508014757 | 51 | 285 | 2.0 | 5.0 | 0.00 | 0.03 | 0.00 | 95 | 1017.1 |
| 20260508014257 | 51 | 269 | 2.0 | 5.0 | 0.00 | 0.03 | 0.00 | 95 | 1017.0 |
| 20260508012757 | 51 | 281 | 2.0 | 3.0 | 0.00 | 0.03 | 0.00 | 95 | 1017.1 |
| 20260508012258 | 51 | 330 | 2.0 | 3.0 | 0.00 | 0.03 | 0.00 | 95 | 1017.1 |
| 20260508011757 | 51 | 250 | 2.0 | 3.0 | 0.00 | 0.03 | 0.00 | 95 | 1017.1 |
| 20260508010757 | 51 | 276 | 0.0 | 3.0 | 0.00 | 0.03 | 0.00 | 95 | 1017.1 |
| 20260508005757 | 51 | 276 | 0.0 | 2.0 | 0.00 | 0.03 | 0.00 | 94 | 1017.0 |
| 20260508004758 | 51 | 276 | 1.0 | 5.0 | 0.00 | 0.03 | 0.00 | 94 | 1017.0 |
| 20260508003757 | 51 | 264 | 0.0 | 2.0 | 0.00 | 0.03 | 0.00 | 94 | 1017.0 |
| 20260508002758 | 51 | 264 | 1.0 | 3.0 | 0.00 | 0.03 | 0.00 | 94 | 1016.8 |
| 20260508002257 | 51 | 247 | 0.0 | 3.0 | 0.00 | 0.03 | 0.00 | 94 | 1016.8 |
| 20260508001757 | 52 | 272 | 0.0 | 3.0 | 0.00 | 0.03 | 0.00 | 93 | 1016.8 |
| 20260508000756 | 52 | 267 | 0.0 | 3.0 | 0.00 | 0.03 | 0.00 | 93 | 1016.8 |
| 20260508000257 | 52 | 251 | 0.0 | 2.0 | 0.00 | 0.03 | 0.00 | 93 | 1016.8 |
| 20260507235757 | 52 | 251 | 0.0 | 2.0 | 0.00 | 0.03 | 0.00 | 93 | 1016.9 |
| 20260507235257 | 52 | 251 | 0.0 | 0.0 | 0.00 | 0.03 | 0.00 | 93 | 1016.9 |
| 20260507234758 | 52 | 251 | 0.0 | 0.0 | 0.00 | 0.03 | 0.00 | 93 | 1016.9 |
| 20260507234258 | 52 | 251 | 0.0 | 0.0 | 0.00 | 0.03 | 0.00 | 93 | 1017.0 |
| 20260507233757 | 52 | 251 | 0.0 | 2.0 | 0.00 | 0.03 | 0.00 | 93 | 1017.0 |
| 20260507233257 | 52 | 251 | 0.0 | 2.0 | 0.00 | 0.03 | 0.00 | 93 | 1017.0 |
| 20260507232757 | 52 | 251 | 0.0 | 2.0 | 0.00 | 0.03 | 0.00 | 93 | 1017.1 |
| 20260507232257 | 53 | 251 | 0.0 | 2.0 | 0.00 | 0.03 | 0.00 | 93 | 1017.1 |
| 20260507231757 | 53 | 251 | 0.0 | 2.0 | 0.00 | 0.03 | 0.00 | 93 | 1017.1 |
| 20260507231257 | 53 | 250 | 0.0 | 2.0 | 0.00 | 0.03 | 0.00 | 92 | 1017.1 |
| 20260507230758 | 53 | 290 | 0.0 | 2.0 | 0.00 | 0.03 | 0.00 | 92 | 1017.1 |
| 20260507230256 | 53 | 290 | 1.0 | 2.0 | 0.00 | 0.03 | 0.00 | 92 | 1017.1 |
| 20260507225757 | 53 | 290 | 1.0 | 2.0 | 0.00 | 0.03 | 0.00 | 92 | 1017.0 |
| 20260507225257 | 53 | 239 | 2.0 | 3.0 | 0.00 | 0.03 | 0.00 | 92 | 1017.0 |
| 20260507224758 | 53 | 285 | 2.0 | 3.0 | 0.00 | 0.03 | 0.00 | 92 | 1017.0 |
| 20260507223758 | 53 | 230 | 0.0 | 2.0 | 0.00 | 0.03 | 0.00 | 92 | 1016.9 |
| 20260507223257 | 53 | 231 | 0.0 | 0.0 | 0.00 | 0.03 | 0.00 | 92 | 1016.9 |
| 20260507222757 | 53 | 231 | 0.0 | 2.0 | 0.00 | 0.03 | 0.00 | 91 | 1016.8 |
| 20260507222257 | 53 | 231 | 0.0 | 2.0 | 0.00 | 0.03 | 0.00 | 91 | 1016.8 |
| 20260507221757 | 53 | 231 | 0.0 | 1.0 | 0.00 | 0.03 | 0.00 | 91 | 1016.8 |
| 20260507221257 | 53 | 231 | 1.0 | 0.0 | 0.00 | 0.03 | 0.00 | 91 | 1016.8 |
| 20260507220847 | 53 | 231 | 1.0 | 3.0 | 0.00 | 0.03 | 0.00 | 91 | 1016.8 |
| 20260507220258 | 54 | 231 | 2.0 | 5.0 | 0.00 | 0.03 | 0.00 | 91 | 1016.8 |
| 20260507215757 | 54 | 276 | 2.0 | 5.0 | 0.00 | 0.03 | 0.03 | 90 | 1016.8 |
| 20260507215257 | 54 | 275 | 1.0 | 5.0 | 0.00 | 0.03 | 0.03 | 90 | 1016.8 |
| 20260507214757 | 53 | 276 | 1.0 | 3.0 | 0.00 | 0.03 | 0.03 | 90 | 1016.8 |
| 20260507213257 | 53 | 264 | 0.0 | 2.0 | 0.00 | 0.03 | 0.03 | 90 | 1016.8 |
| 20260507212757 | 53 | 264 | 0.0 | 2.0 | 0.00 | 0.03 | 0.03 | 90 | 1016.7 |
| 20260507212257 | 53 | 264 | 0.0 | 2.0 | 0.00 | 0.03 | 0.03 | 90 | 1016.7 |
| 20260507211757 | 53 | 264 | 0.0 | 3.0 | 0.00 | 0.03 | 0.03 | 90 | 1016.7 |
| 20260507211258 | 54 | 4 | 2.0 | 5.0 | 0.00 | 0.03 | 0.03 | 89 | 1016.6 |
| 20260507210257 | 54 | 288 | 0.0 | 5.0 | 0.00 | 0.03 | 0.03 | 89 | 1016.6 |
| 20260507205757 | 54 | 283 | 0.0 | 3.0 | 0.00 | 0.03 | 0.03 | 89 | 1016.5 |
| 20260507205257 | 54 | 259 | 1.0 | 2.0 | 0.00 | 0.03 | 0.03 | 88 | 1016.5 |
| 20260507204757 | 54 | 274 | 1.0 | 3.0 | 0.00 | 0.03 | 0.03 | 88 | 1016.5 |
| 20260507204258 | 54 | 274 | 0.0 | 3.0 | 0.00 | 0.03 | 0.03 | 88 | 1016.4 |
| 20260507203757 | 55 | 275 | 0.0 | 3.0 | 0.00 | 0.03 | 0.03 | 87 | 1016.4 |
| 20260507202758 | 55 | 240 | 1.0 | 3.0 | 0.00 | 0.03 | 0.03 | 87 | 1016.4 |
| 20260507202258 | 55 | 232 | 2.0 | 3.0 | 0.00 | 0.03 | 0.03 | 87 | 1016.4 |
| 20260507201757 | 55 | 276 | 2.0 | 3.0 | 0.00 | 0.03 | 0.03 | 87 | 1016.4 |
| 20260507200257 | 55 | 245 | 1.0 | 5.0 | 0.00 | 0.03 | 0.03 | 87 | 1016.4 |
| 20260507195757 | 55 | 288 | 1.0 | 5.0 | 0.00 | 0.03 | 0.03 | 87 | 1016.2 |
| 20260507195258 | 55 | 300 | 2.0 | 3.0 | 0.00 | 0.03 | 0.03 | 86 | 1016.2 |
| 20260507194257 | 56 | 274 | 1.0 | 5.0 | 0.00 | 0.03 | 0.03 | 87 | 1015.9 |
| 20260507193757 | 56 | 269 | 1.0 | 5.0 | 0.00 | 0.03 | 0.03 | 86 | 1015.9 |
| 20260507192759 | 56 | 242 | 1.0 | 3.0 | 0.00 | 0.03 | 0.03 | 85 | 1015.7 |
| 20260507192257 | 56 | 325 | 1.0 | 3.0 | 0.00 | 0.03 | 0.03 | 85 | 1015.7 |
| 20260507191758 | 56 | 179 | 1.0 | 3.0 | 0.00 | 0.03 | 0.03 | 85 | 1015.7 |
| 20260507191258 | 56 | 0 | 2.0 | 5.0 | 0.00 | 0.03 | 0.03 | 84 | 1015.5 |
| 20260507190757 | 56 | 310 | 2.0 | 5.0 | 0.00 | 0.03 | 0.03 | 83 | 1015.5 |
| 20260507190258 | 56 | 244 | 0.0 | 5.0 | 0.00 | 0.03 | 0.03 | 83 | 1015.5 |
| 20260507185757 | 57 | 268 | 0.0 | 5.0 | 0.00 | 0.03 | 0.03 | 84 | 1015.2 |
| 20260507185258 | 57 | 275 | 1.0 | 2.0 | 0.00 | 0.03 | 0.03 | 85 | 1015.2 |
| 20260507184757 | 57 | 275 | 1.0 | 2.0 | 0.00 | 0.03 | 0.03 | 83 | 1015.2 |
| 20260507184257 | 57 | 275 | 2.0 | 3.0 | 0.00 | 0.03 | 0.03 | 83 | 1015.1 |
| 20260507183257 | 58 | 286 | 2.0 | 5.0 | 0.00 | 0.03 | 0.03 | 82 | 1015.1 |
| 20260507182758 | 58 | 59 | 2.0 | 5.0 | 0.00 | 0.03 | 0.03 | 82 | 1014.9 |
| 20260507182257 | 58 | 59 | 1.0 | 5.0 | 0.00 | 0.03 | 0.03 | 82 | 1014.9 |
| 20260507181758 | 59 | 59 | 1.0 | 3.0 | 0.00 | 0.03 | 0.03 | 82 | 1014.9 |
| 20260507181257 | 59 | 12 | 1.0 | 5.0 | 0.00 | 0.03 | 0.03 | 81 | 1014.7 |
| 20260507180758 | 59 | 74 | 1.0 | 5.0 | 0.00 | 0.03 | 0.03 | 81 | 1014.7 |
| 20260507180257 | 59 | 286 | 0.0 | 5.0 | 0.00 | 0.03 | 0.03 | 81 | 1014.7 |
| 20260507175757 | 60 | 263 | 0.0 | 2.0 | 0.00 | 0.03 | 0.03 | 82 | 1014.5 |
| 20260507175258 | 60 | 263 | 0.0 | 3.0 | 0.00 | 0.03 | 0.03 | 81 | 1014.5 |
| 20260507174758 | 60 | 263 | 0.0 | 3.0 | 0.00 | 0.03 | 0.03 | 80 | 1014.5 |
| 20260507174258 | 60 | 263 | 0.0 | 3.0 | 0.00 | 0.03 | 0.03 | 79 | 1014.3 |
| 20260507173757 | 61 | 263 | 0.0 | 2.0 | 0.00 | 0.03 | 0.03 | 79 | 1014.3 |
| 20260507173257 | 61 | 263 | 0.0 | 2.0 | 0.00 | 0.03 | 0.03 | 78 | 1014.3 |
| 20260507172258 | 62 | 262 | 1.0 | 2.0 | 0.00 | 0.03 | 0.03 | 73 | 1014.3 |
| 20260507171258 | 62 | 255 | 2.0 | 5.0 | 0.00 | 0.03 | 0.03 | 72 | 1014.2 |
| 20260507170757 | 62 | 229 | 2.0 | 5.0 | 0.00 | 0.03 | 0.03 | 70 | 1014.2 |
| 20260507170257 | 63 | 246 | 2.0 | 5.0 | 0.00 | 0.03 | 0.03 | 70 | 1014.2 |
| 20260507165757 | 63 | 248 | 2.0 | 5.0 | 0.00 | 0.03 | 0.03 | 69 | 1014.0 |
| 20260507165257 | 63 | 52 | 2.0 | 5.0 | 0.00 | 0.03 | 0.03 | 69 | 1014.0 |
| 20260507164757 | 62 | 254 | 2.0 | 5.0 | 0.00 | 0.03 | 0.03 | 68 | 1014.0 |
| 20260507164258 | 62 | 168 | 2.0 | 5.0 | 0.00 | 0.03 | 0.03 | 68 | 1014.0 |
| 20260507163258 | 63 | 200 | 2.0 | 5.0 | 0.00 | 0.03 | 0.03 | 64 | 1014.0 |
| 20260507162757 | 63 | 217 | 2.0 | 5.0 | 0.00 | 0.03 | 0.03 | 62 | 1013.9 |
| 20260507162257 | 63 | 182 | 2.0 | 5.0 | 0.00 | 0.03 | 0.03 | 66 | 1013.9 |
| 20260507161757 | 63 | 174 | 2.0 | 5.0 | 0.00 | 0.03 | 0.03 | 66 | 1013.9 |
| 20260507161258 | 62 | 175 | 2.0 | 5.0 | 0.00 | 0.03 | 0.03 | 68 | 1013.8 |
| 20260507160758 | 62 | 242 | 2.0 | 5.0 | 0.00 | 0.03 | 0.03 | 70 | 1013.8 |
| 20260507155758 | 62 | 173 | 2.0 | 6.0 | 0.00 | 0.03 | 0.03 | 71 | 1013.8 |
| 20260507155257 | 62 | 183 | 2.0 | 6.0 | 0.00 | 0.03 | 0.03 | 72 | 1013.8 |
| 20260507154757 | 62 | 204 | 2.0 | 5.0 | 0.00 | 0.03 | 0.03 | 70 | 1013.8 |
| 20260507154257 | 62 | 214 | 2.0 | 5.0 | 0.00 | 0.03 | 0.03 | 70 | 1013.7 |
| 20260507153757 | 62 | 238 | 2.0 | 5.0 | 0.00 | 0.03 | 0.03 | 73 | 1013.7 |
| 20260507152758 | 62 | 220 | 2.0 | 5.0 | 0.00 | 0.03 | 0.03 | 71 | 1013.7 |
| 20260507152257 | 62 | 200 | 2.0 | 5.0 | 0.00 | 0.03 | 0.03 | 70 | 1013.7 |
| 20260507151757 | 62 | 206 | 2.0 | 5.0 | 0.00 | 0.03 | 0.03 | 70 | 1013.7 |
| 20260507151257 | 62 | 231 | 1.0 | 5.0 | 0.00 | 0.03 | 0.03 | 76 | 1013.8 |
| 20260507150757 | 61 | 231 | 1.0 | 5.0 | 0.00 | 0.03 | 0.03 | 72 | 1013.8 |
| 20260507150258 | 61 | 220 | 2.0 | 5.0 | 0.00 | 0.03 | 0.03 | 73 | 1013.8 |
| 20260507145758 | 61 | 219 | 2.0 | 5.0 | 0.00 | 0.03 | 0.03 | 74 | 1014.0 |
| 20260507145258 | 60 | 224 | 2.0 | 3.0 | 0.00 | 0.03 | 0.03 | 79 | 1014.0 |
| 20260507144257 | 59 | 162 | 2.0 | 5.0 | 0.00 | 0.03 | 0.03 | 84 | 1014.2 |
| 20260507143757 | 58 | 205 | 2.0 | 5.0 | 0.00 | 0.03 | 0.03 | 83 | 1014.2 |
| 20260507142758 | 58 | 240 | 2.0 | 8.0 | 0.01 | 0.03 | 0.03 | 86 | 1014.2 |
| 20260507142258 | 58 | 199 | 2.0 | 8.0 | 0.01 | 0.03 | 0.03 | 88 | 1014.2 |
| 20260507141758 | 57 | 175 | 2.0 | 7.0 | 0.03 | 0.03 | 0.03 | 89 | 1014.2 |
| 20260507140757 | 57 | 163 | 3.0 | 8.0 | 0.03 | 0.03 | 0.03 | 91 | 1014.3 |
| 20260507135258 | 56 | 195 | 2.0 | 3.0 | 0.03 | 0.03 | 0.03 | 93 | 1014.3 |
| 20260507134758 | 56 | 232 | 2.0 | 5.0 | 0.03 | 0.03 | 0.03 | 91 | 1014.3 |
| 20260507134258 | 55 | 236 | 2.0 | 8.0 | 0.03 | 0.03 | 0.03 | 90 | 1014.6 |
| 20260507133758 | 56 | 248 | 2.0 | 8.0 | 0.03 | 0.03 | 0.03 | 89 | 1014.6 |
| 20260507133257 | 56 | 269 | 1.0 | 6.0 | 0.03 | 0.03 | 0.03 | 89 | 1014.6 |
| 20260507132758 | 57 | 217 | 1.0 | 3.0 | 0.02 | 0.02 | 0.02 | 89 | 1015.3 |
| 20260507132257 | 57 | 308 | 1.0 | 3.0 | 0.02 | 0.03 | 0.02 | 88 | 1015.3 |
| 20260507131757 | 57 | 214 | 1.0 | 3.0 | 0.00 | 0.01 | 0.00 | 86 | 1015.3 |
| 20260507131258 | 57 | 342 | 2.0 | 5.0 | 0.00 | 0.01 | 0.00 | 87 | 1015.1 |
| 20260507130758 | 57 | 173 | 2.0 | 5.0 | 0.00 | 0.02 | 0.00 | 86 | 1015.1 |
| 20260507130258 | 57 | 176 | 2.0 | 5.0 | 0.00 | 0.02 | 0.00 | 85 | 1015.1 |
| 20260507125757 | 58 | 205 | 2.0 | 5.0 | 0.00 | 0.03 | 0.00 | 85 | 1014.8 |
| 20260507125258 | 58 | 211 | 1.0 | 5.0 | 0.00 | 0.05 | 0.00 | 84 | 1014.8 |
| 20260507124758 | 58 | 200 | 1.0 | 5.0 | 0.00 | 0.07 | 0.00 | 83 | 1014.8 |
| 20260507124258 | 58 | 177 | 1.0 | 3.0 | 0.00 | 0.07 | 0.00 | 82 | 1014.3 |
| 20260507123758 | 58 | 177 | 1.0 | 3.0 | 0.00 | 0.07 | 0.00 | 83 | 1014.3 |
| 20260507122758 | 58 | 53 | 1.0 | 5.0 | 0.00 | 0.07 | 0.00 | 85 | 1014.2 |
| 20260507122258 | 58 | 32 | 2.0 | 7.0 | 0.00 | 0.08 | 0.00 | 83 | 1014.2 |
| 20260507121757 | 58 | 281 | 2.0 | 7.0 | 0.00 | 0.09 | 0.00 | 81 | 1014.2 |
| 20260507121258 | 59 | 155 | 1.0 | 7.0 | 0.00 | 0.09 | 0.00 | 83 | 1014.2 |